COSMOS 595

Satellite information

Favourite Embed

Satellite Type and Status

PAYLOADIN ORBIT

Key statistics

Satellite COSMOS 595 at a glance.

Uptime

18908

Days in orbit

Revolutions

≈ 12.6

Per day

Orbit

LEO

Low Earth Orbit

Inclination

74.0

Latest

Satellite identification and parameters

Extended collection of information and parameters for COSMOS 595.

Object identification

Identified? True

Debris? False

Object name: COSMOS 595

International designator: 1973-069H

Object number (NORAD): 6852

Object ID (CCSDS): 6852

Country: COMMONWEALTH OF INDEPENDENT STATES (CIS)

Current information (Y/N): Y

RCS size: MEDIUM

Orbital parameters

Period: 114.697 minutes

Inclination: 74.0008 deg

SMA: 7819.792 km

Apoapsis: 1485.641 km

Periapsis: 1397.674 km

RAAN: 124.6359 deg

Eccentricy: 0.0056246

Argument of periapsis: 266.9239 deg

Mean anomaly: 155.5293 deg

Mean motion: 12.55480356 rev/day

Mean motion (dot): -0.00000033 rev/day2

B* drag term: -0.000099545 1/REarth

Two-line elements (TLE)

Creation date: July 9, 2025, 2:22 a.m.

Reference frame: TEME

Reference center: EARTH

Epoch: July 8, 2025, 8:16 p.m. UTC

TLE line 0: 0 COSMOS 595

TLE line 1: 1 06852U 73069H 25189.84474633 -.00000033 00000-0 -99545-4 0 9994

TLE line 2: 2 06852 74.0008 124.6359 0056246 266.9239 155.5293 12.55480356372441

Live tracking on map

Real-time ground track for satellite COSMOS 595.

In-orbit conjunctions

There are no conjunctions computed for COSMOS 595, at the moment. Check back to stay up to date, as we update our databases every day.

Go to all conjunctions

Associated space launch

Military communications satellites

COSMOS 595 was lifted into orbit during the mission ‘Kosmos-3M | Strela-1M 49-56’, on board a Kosmos-3M space rocket.

The launch took place on Oct. 2, 1973, 9:46 p.m. from 132/2.

For more information about the launch, click the button.

Launch to space Kosmos-3M | Strela-1M 49-56
Kosmos-3M | Strela-1M 49-56

Agency: N/A

Status: Launch Successful

Launch date: Oct. 2, 1973, 9:46 p.m. UTC

Rocket: Kosmos-3M

Launch pad: 132/2

Location: Plesetsk Cosmodrome, Russian Federation

...

Latest news about this satellite

There are no fresh news available about this satellite. Check back as we update our databases every day.


Newsletter sign-up

Weekly statistics, charts and insights to help you stay on top of the space industry.